Concordia, KS

6:46 PM CDT on July 24, 2017 (GMT -0500)
Blosser Municipal

Weather History for KCNK - January, 2013

Change the Weather History Date:

Thursday, January 3, 2013

  Actual Average Record
Temperature  
Mean Temperature 25 °F 28 °F  
Max Temperature 32 °F 38 °F 64 °F (1898)
Min Temperature 17 °F 19 °F -14 °F (1919)
Degree Days  
Heating Degree Days 40 37  
Month to date heating degree days 132 111  
Since 1 July heating degree days 2159 2288  
Cooling Degree Days 0 0  
Month to date cooling degree days 0 0  
Year to date cooling degree days 0 0  
Moisture  
Dew Point 18 °F    
Average Humidity 72    
Maximum Humidity 91    
Minimum Humidity 53    
Precipitation  
Precipitation T in 0.02 in 0.66 in (1971)
Month to date precipitation T 0.05  
Year to date precipitation T 0.05  
Snow  
Snow T in 0.20 in 7.50 in (1971)
Month to date snowfall T 0.5  
Year to date snowfall T 0.5  
Since 1 July snowfall 8.5 7.0  
Snow Depth 5.00 in    
Sea Level Pressure  
Sea Level Pressure 30.41 in    
Wind  
Wind Speed 8 mph (West)    
Max Wind Speed 13 mph    
Max Gust Speed 17 mph    
Visibility 10 miles    
Events Snow    
T = Trace of Precipitation, MM = Missing Value Source: NWS Daily Summary

Daily Weather History Graph

Daily Weather History Graph

Search for Another Location

Airport or City:

Trip Planner

Search our weather history database for the weather conditions in past years. The results will help you decide how hot, cold, wet, or windy it might be!

Date:

Astronomy

Jan. 03, 2013 Rise Set
Actual Time 7:51 AM CST 5:19 PM CST
Civil Twilight 7:21 AM CST 5:49 PM CST
Nautical Twilight 6:47 AM CST 6:23 PM CST
Astronomical Twilight 6:15 AM CST 6:55 PM CST
Moon 11:54 PM CST (1/3) 11:05 AM CST (1/3)
Length of Visible Light 10h 28m
Length of Day
9h 28m
Waning Gibbous, 65% of the Moon is Illuminated
Jan 3
Waning Gibbous
Jan 4
Last Quarter
Jan 11
New
Jan 18
First Quarter
Jan 26
Full

Hourly Weather History & Observations

Time (CST) Temp. Windchill Dew Point Humidity Pressure Visibility Wind Dir Wind Speed Gust Speed Precip Events Conditions
12:55 AM 26.1 °F 17.6 °F 21.0 °F 81% 30.32 in 10.0 mi West 8.1 mph - N/A   Overcast
1:55 AM 25.0 °F 16.3 °F 19.9 °F 81% 30.33 in 10.0 mi WNW 8.1 mph - N/A   Overcast
2:55 AM 25.0 °F 15.5 °F 19.0 °F 78% 30.36 in 10.0 mi NW 9.2 mph - N/A   Overcast
3:55 AM 24.1 °F 13.1 °F 18.0 °F 77% 30.37 in 10.0 mi NW 11.5 mph - N/A   Overcast
4:55 AM 23.0 °F 12.4 °F 17.1 °F 78% 30.38 in 10.0 mi NW 10.4 mph - N/A   Overcast
5:55 AM 21.9 °F 11.7 °F 16.0 °F 78% 30.38 in 10.0 mi WNW 9.2 mph - N/A   Overcast
6:55 AM 19.9 °F 9.3 °F 15.1 °F 81% 30.40 in 10.0 mi NW 9.2 mph - N/A   Clear
7:55 AM 19.0 °F 10.0 °F 15.1 °F 85% 30.42 in 10.0 mi West 6.9 mph - N/A   Mostly Cloudy
8:55 AM 21.9 °F 12.5 °F 17.1 °F 82% 30.44 in 10.0 mi WNW 8.1 mph - N/A   Overcast
9:55 AM 24.1 °F 15.2 °F 19.0 °F 81% 30.47 in 9.0 mi WNW 8.1 mph - 0.00 in   Overcast
10:55 AM 26.1 °F 18.4 °F 21.0 °F 81% 30.49 in 10.0 mi West 6.9 mph - 0.00 in   Overcast
11:55 AM 27.0 °F 19.5 °F 23.0 °F 85% 30.46 in 8.0 mi West 6.9 mph - 0.00 in Snow Light Snow
12:55 PM 28.9 °F 21.9 °F 21.9 °F 75% 30.43 in 10.0 mi WNW 6.9 mph - 0.00 in   Overcast
1:55 PM 30.9 °F 27.5 °F 19.9 °F 64% 30.42 in 10.0 mi WNW 3.5 mph - N/A   Overcast
2:55 PM 32.0 °F 25.6 °F 18.0 °F 56% 30.41 in 10.0 mi NNW 6.9 mph - N/A   Scattered Clouds
3:55 PM 30.9 °F 27.5 °F 16.0 °F 54% 30.42 in 10.0 mi NW 3.5 mph - N/A   Clear
4:55 PM 26.1 °F 20.5 °F 19.9 °F 78% 30.43 in 10.0 mi WSW 4.6 mph - N/A   Clear
5:55 PM 21.9 °F 13.4 °F 18.0 °F 85% 30.43 in 10.0 mi SW 6.9 mph - N/A   Clear
6:55 PM 21.9 °F 13.4 °F 18.0 °F 85% 30.44 in 10.0 mi SW 6.9 mph - N/A   Clear
7:55 PM 19.9 °F 10.1 °F 17.1 °F 89% 30.44 in 10.0 mi SSW 8.1 mph - N/A   Clear
8:55 PM 19.9 °F 10.1 °F 17.1 °F 89% 30.43 in 10.0 mi SSW 8.1 mph - N/A   Clear
9:55 PM 19.0 °F 7.5 °F 15.1 °F 85% 30.42 in 10.0 mi SSW 10.4 mph - N/A   Clear
10:55 PM 18.0 °F 6.1 °F 14.0 °F 84% 30.41 in 10.0 mi SSW 10.4 mph - N/A   Clear
11:55 PM 18.0 °F 7.7 °F 14.0 °F 84% 30.40 in 10.0 mi SW 8.1 mph - N/A   Clear